Year,Month,Day,Hour,Minute,Value (Times are PST for windspeed in km/hr)
2006,02,01,00,00,24.20
2006,02,01,00,01,22.40
2006,02,01,00,02,22.80
2006,02,01,00,03,20.80
2006,02,01,00,04,24.40
2006,02,01,00,05,20.80
2006,02,01,00,06,21.90
2006,02,01,00,07,17.30
2006,02,01,00,08,16.30
2006,02,01,00,09,30.90
2006,02,01,00,10,24.20
2006,02,01,00,11,29.90
2006,02,01,00,12,30.40
2006,02,01,00,13,23.60
2006,02,01,00,14,23.40
2006,02,01,00,15,23.50
2006,02,01,00,16,21.10
2006,02,01,00,17,18.30
2006,02,01,00,18,27.00
2006,02,01,00,19,26.90
2006,02,01,00,20,20.20
2006,02,01,00,21,24.00
2006,02,01,00,22,28.40
2006,02,01,00,23,27.70
2006,02,01,00,24,19.50
2006,02,01,00,25,24.00
2006,02,01,00,26,32.90
2006,02,01,00,27,32.50
2006,02,01,00,28,26.60
2006,02,01,00,29,29.20
2006,02,01,00,30,27.80
2006,02,01,00,31,31.40
2006,02,01,00,32,27.20
2006,02,01,00,33,19.70
2006,02,01,00,34,15.70
2006,02,01,00,35,20.20
2006,02,01,00,36,20.10
2006,02,01,00,37,17.90
2006,02,01,00,38,15.50
2006,02,01,00,39,24.20
2006,02,01,00,40,25.40
2006,02,01,00,41,22.40
2006,02,01,00,42,31.00
2006,02,01,00,43,22.20
2006,02,01,00,44,15.40
2006,02,01,00,45,15.30
2006,02,01,00,46,29.10
2006,02,01,00,47,23.80
2006,02,01,00,48,29.00
2006,02,01,00,49,26.20
2006,02,01,00,50,27.40
2006,02,01,00,51,22.40
2006,02,01,00,52,31.30
2006,02,01,00,53,25.30
2006,02,01,00,54,23.20
2006,02,01,00,55,32.00
2006,02,01,00,56,23.70
2006,02,01,00,57,26.80
2006,02,01,00,58,24.40
2006,02,01,00,59,24.80
2006,02,01,01,00,27.70
2006,02,01,01,01,21.60
2006,02,01,01,02,22.80
2006,02,01,01,03,24.50
2006,02,01,01,04,28.60
2006,02,01,01,05,29.90
2006,02,01,01,06,31.30
2006,02,01,01,07,37.70
2006,02,01,01,08,32.40
2006,02,01,01,09,21.10
2006,02,01,01,10,18.60
2006,02,01,01,11,26.10
2006,02,01,01,12,26.20
2006,02,01,01,13,36.60
2006,02,01,01,14,32.80
2006,02,01,01,15,28.80
2006,02,01,01,16,27.60
2006,02,01,01,17,34.30
2006,02,01,01,18,44.30
2006,02,01,01,19,51.20
2006,02,01,01,20,39.70
2006,02,01,01,21,40.60
2006,02,01,01,22,30.80
2006,02,01,01,23,32.80
2006,02,01,01,24,25.20
2006,02,01,01,25,28.20
2006,02,01,01,26,27.00
2006,02,01,01,27,21.20
2006,02,01,01,28,20.00
2006,02,01,01,29,21.80
2006,02,01,01,30,27.60
2006,02,01,01,31,29.90
2006,02,01,01,32,33.30
2006,02,01,01,33,26.90
2006,02,01,01,34,26.30
2006,02,01,01,35,33.60
2006,02,01,01,36,27.60
2006,02,01,01,37,30.40
2006,02,01,01,38,32.70
2006,02,01,01,39,21.70
2006,02,01,01,40,24.30
2006,02,01,01,41,23.80
2006,02,01,01,42,21.10
2006,02,01,01,43,25.50
2006,02,01,01,44,28.50
2006,02,01,01,45,28.30
2006,02,01,01,46,22.00
2006,02,01,01,47,17.50
2006,02,01,01,48,29.30
2006,02,01,01,49,28.00
2006,02,01,01,50,27.40
2006,02,01,01,51,22.50
2006,02,01,01,52,35.20
2006,02,01,01,53,24.50
2006,02,01,01,54,25.40
2006,02,01,01,55,21.10
2006,02,01,01,56,29.90
2006,02,01,01,57,28.40
2006,02,01,01,58,32.70
2006,02,01,01,59,30.30
2006,02,01,02,00,35.90
2006,02,01,02,01,25.00
2006,02,01,02,02,29.30
2006,02,01,02,03,29.90
2006,02,01,02,04,31.10
2006,02,01,02,05,22.80
2006,02,01,02,06,26.20
2006,02,01,02,07,34.50
2006,02,01,02,08,25.60
2006,02,01,02,09,25.70
2006,02,01,02,10,28.60
2006,02,01,02,11,29.00
2006,02,01,02,12,28.40
2006,02,01,02,13,33.80
2006,02,01,02,14,35.90
2006,02,01,02,15,36.10
2006,02,01,02,16,37.30
2006,02,01,02,17,31.30
2006,02,01,02,18,21.20
2006,02,01,02,19,28.60
2006,02,01,02,20,32.90
2006,02,01,02,21,30.60
2006,02,01,02,22,26.10
2006,02,01,02,23,13.30
2006,02,01,02,24,35.20
2006,02,01,02,25,37.20
2006,02,01,02,26,38.10
2006,02,01,02,27,28.60
2006,02,01,02,28,31.70
2006,02,01,02,29,32.40
2006,02,01,02,30,26.60
2006,02,01,02,31,28.20
2006,02,01,02,32,29.40
2006,02,01,02,33,23.00
2006,02,01,02,34,28.40
2006,02,01,02,35,27.80
2006,02,01,02,36,28.00
2006,02,01,02,37,26.10
2006,02,01,02,38,22.80
2006,02,01,02,39,19.00
2006,02,01,02,40,18.00
2006,02,01,02,41,24.40
2006,02,01,02,42,19.60
2006,02,01,02,43,18.60
2006,02,01,02,44,14.40
2006,02,01,02,45,15.30
2006,02,01,02,46,14.80
2006,02,01,02,47,31.80
2006,02,01,02,48,29.80
2006,02,01,02,49,19.80
2006,02,01,02,50,19.60
2006,02,01,02,51,26.60
2006,02,01,02,52,19.40
2006,02,01,02,53,19.60
2006,02,01,02,54,14.90
2006,02,01,02,55,19.60
2006,02,01,02,56,27.80
2006,02,01,02,57,32.70
2006,02,01,02,58,35.20
2006,02,01,02,59,23.30
2006,02,01,03,00,28.40
2006,02,01,03,01,27.30
2006,02,01,03,02,25.50
2006,02,01,03,03,32.00
2006,02,01,03,04,27.20
2006,02,01,03,05,25.90
2006,02,01,03,06,27.30
2006,02,01,03,07,26.50
2006,02,01,03,08,24.00
2006,02,01,03,09,29.10
2006,02,01,03,10,29.00
2006,02,01,03,11,27.40
2006,02,01,03,12,24.20
2006,02,01,03,13,25.70
2006,02,01,03,14,30.70
2006,02,01,03,15,20.20
2006,02,01,03,16,25.10
2006,02,01,03,17,23.60
2006,02,01,03,18,32.90
2006,02,01,03,19,26.90
2006,02,01,03,20,24.10
2006,02,01,03,21,22.50
2006,02,01,03,22,31.10
2006,02,01,03,23,20.20
2006,02,01,03,24,20.50
2006,02,01,03,25,28.70
2006,02,01,03,26,17.50
2006,02,01,03,27,16.80
2006,02,01,03,28,17.50
2006,02,01,03,29,18.30
2006,02,01,03,30,19.50
2006,02,01,03,31,15.50
2006,02,01,03,32,22.10
2006,02,01,03,33,22.90
2006,02,01,03,34,23.00
2006,02,01,03,35,29.30
2006,02,01,03,36,19.90
2006,02,01,03,37,16.50
2006,02,01,03,38,14.70
2006,02,01,03,39,10.30
2006,02,01,03,40,4.10
2006,02,01,03,41,6.30
2006,02,01,03,42,19.90
2006,02,01,03,43,23.10
2006,02,01,03,44,16.30
2006,02,01,03,45,13.60
2006,02,01,03,46,11.90
2006,02,01,03,47,5.90
2006,02,01,03,48,18.20
2006,02,01,03,49,20.40
2006,02,01,03,50,18.70
2006,02,01,03,51,17.70
2006,02,01,03,52,10.00
2006,02,01,03,53,17.70
2006,02,01,03,54,26.40
2006,02,01,03,55,12.50
2006,02,01,03,56,10.90
2006,02,01,03,57,13.70
2006,02,01,03,58,13.70
2006,02,01,03,59,18.30
2006,02,01,04,00,14.50
2006,02,01,04,01,16.70
2006,02,01,04,02,16.90
2006,02,01,04,03,27.10
2006,02,01,04,04,28.50
2006,02,01,04,05,27.20
2006,02,01,04,06,26.00
2006,02,01,04,07,20.20
2006,02,01,04,08,26.80
2006,02,01,04,09,27.90
2006,02,01,04,10,25.70
2006,02,01,04,11,21.10
2006,02,01,04,12,18.10
2006,02,01,04,13,24.80
2006,02,01,04,14,34.30
2006,02,01,04,15,22.30
2006,02,01,04,16,24.50
2006,02,01,04,17,29.10
2006,02,01,04,18,36.60
2006,02,01,04,19,35.50
2006,02,01,04,20,36.20
2006,02,01,04,21,29.10
2006,02,01,04,22,25.30
2006,02,01,04,23,38.00
2006,02,01,04,24,28.30
2006,02,01,04,25,24.10
2006,02,01,04,26,27.00
2006,02,01,04,27,28.60
2006,02,01,04,28,34.80
2006,02,01,04,29,38.90
2006,02,01,04,30,33.60
2006,02,01,04,31,31.40
2006,02,01,04,32,24.60
2006,02,01,04,33,26.70
2006,02,01,04,34,23.10
2006,02,01,04,35,28.20
2006,02,01,04,36,28.00
2006,02,01,04,37,24.20
2006,02,01,04,38,12.50
2006,02,01,04,39,16.20
2006,02,01,04,40,18.70
2006,02,01,04,41,37.90
2006,02,01,04,42,27.40
2006,02,01,04,43,30.50
2006,02,01,04,44,27.40
2006,02,01,04,45,26.10
2006,02,01,04,46,25.30
2006,02,01,04,47,33.40
2006,02,01,04,48,41.70
2006,02,01,04,49,33.20
2006,02,01,04,50,42.60
2006,02,01,04,51,34.80
2006,02,01,04,52,26.60
2006,02,01,04,53,28.90
2006,02,01,04,54,29.70
2006,02,01,04,55,34.40
2006,02,01,04,56,34.60
2006,02,01,04,57,34.60
2006,02,01,04,58,31.10
2006,02,01,04,59,28.90
2006,02,01,05,00,30.80
2006,02,01,05,01,24.60
2006,02,01,05,02,31.50
2006,02,01,05,03,34.60
2006,02,01,05,04,36.20
2006,02,01,05,05,33.30
2006,02,01,05,06,29.70
2006,02,01,05,07,34.90
2006,02,01,05,08,34.30
2006,02,01,05,09,26.80
2006,02,01,05,10,23.60
2006,02,01,05,11,32.10
2006,02,01,05,12,41.90
2006,02,01,05,13,25.40
2006,02,01,05,14,24.80
2006,02,01,05,15,43.00
2006,02,01,05,16,34.40
2006,02,01,05,17,36.90
2006,02,01,05,18,32.40
2006,02,01,05,19,29.10
2006,02,01,05,20,34.10
2006,02,01,05,21,36.40
2006,02,01,05,22,39.90
2006,02,01,05,23,36.90
2006,02,01,05,24,29.10
2006,02,01,05,25,38.30
2006,02,01,05,26,37.90
2006,02,01,05,27,29.90
2006,02,01,05,28,36.60
2006,02,01,05,29,32.90
2006,02,01,05,30,40.50
2006,02,01,05,31,34.30
2006,02,01,05,32,31.80
2006,02,01,05,33,23.20
2006,02,01,05,34,29.40
2006,02,01,05,35,28.60
2006,02,01,05,36,23.00
2006,02,01,05,37,28.10
2006,02,01,05,38,30.10
2006,02,01,05,39,31.20
2006,02,01,05,40,37.00
2006,02,01,05,41,30.30
2006,02,01,05,42,32.40
2006,02,01,05,43,33.40
2006,02,01,05,44,35.70
2006,02,01,05,45,31.70
2006,02,01,05,46,51.30
2006,02,01,05,47,42.70
2006,02,01,05,48,44.60
2006,02,01,05,49,34.00
2006,02,01,05,50,34.30
2006,02,01,05,51,26.20
2006,02,01,05,52,29.40
2006,02,01,05,53,30.60
2006,02,01,05,54,31.20
2006,02,01,05,55,24.10
2006,02,01,05,56,32.80
2006,02,01,05,57,29.10
2006,02,01,05,58,26.20
2006,02,01,05,59,27.00
2006,02,01,06,00,23.40
2006,02,01,06,01,24.10
2006,02,01,06,02,29.00
2006,02,01,06,03,30.80
2006,02,01,06,04,24.50
2006,02,01,06,05,32.30
2006,02,01,06,06,25.50
2006,02,01,06,07,25.10
2006,02,01,06,08,28.80
2006,02,01,06,09,29.20
2006,02,01,06,10,29.10
2006,02,01,06,11,27.70
2006,02,01,06,12,27.10
2006,02,01,06,13,30.60
2006,02,01,06,14,33.40
2006,02,01,06,15,34.80
2006,02,01,06,16,38.50
2006,02,01,06,17,41.70
2006,02,01,06,18,44.80
2006,02,01,06,19,36.70
2006,02,01,06,20,37.20
2006,02,01,06,21,36.20
2006,02,01,06,22,29.30
2006,02,01,06,23,40.40
2006,02,01,06,24,36.70
2006,02,01,06,25,26.00
2006,02,01,06,26,32.30
2006,02,01,06,27,24.00
2006,02,01,06,28,22.50
2006,02,01,06,29,33.40
2006,02,01,06,30,32.90
2006,02,01,06,31,26.90
2006,02,01,06,32,33.50
2006,02,01,06,33,30.70
2006,02,01,06,34,29.70
2006,02,01,06,35,26.30
2006,02,01,06,36,43.30
2006,02,01,06,37,30.80
2006,02,01,06,38,32.80
2006,02,01,06,39,32.30
2006,02,01,06,40,32.60
2006,02,01,06,41,36.00
2006,02,01,06,42,31.10
2006,02,01,06,43,32.80
2006,02,01,06,44,37.80
2006,02,01,06,45,35.70
2006,02,01,06,46,32.60
2006,02,01,06,47,34.70
2006,02,01,06,48,27.50
2006,02,01,06,49,33.70
2006,02,01,06,50,38.90
2006,02,01,06,51,33.60
2006,02,01,06,52,35.70
2006,02,01,06,53,31.80
2006,02,01,06,54,30.00
2006,02,01,06,55,31.50
2006,02,01,06,56,32.30
2006,02,01,06,57,42.90
2006,02,01,06,58,33.70
2006,02,01,06,59,30.80
2006,02,01,07,00,37.50
2006,02,01,07,01,33.60
2006,02,01,07,02,32.60
2006,02,01,07,03,37.20
2006,02,01,07,04,36.30
2006,02,01,07,05,38.10
2006,02,01,07,06,35.80
2006,02,01,07,07,39.00
2006,02,01,07,08,36.40
2006,02,01,07,09,41.10
2006,02,01,07,10,34.80
2006,02,01,07,11,40.70
2006,02,01,07,12,31.60
2006,02,01,07,13,36.80
2006,02,01,07,14,34.30
2006,02,01,07,15,34.50
2006,02,01,07,16,35.00
2006,02,01,07,17,33.20
2006,02,01,07,18,31.80
2006,02,01,07,19,24.60
2006,02,01,07,20,26.60
2006,02,01,07,21,22.90
2006,02,01,07,22,21.00
2006,02,01,07,23,22.10
2006,02,01,07,24,20.60
2006,02,01,07,25,23.90
2006,02,01,07,26,38.10
2006,02,01,07,27,28.30
2006,02,01,07,28,12.70
2006,02,01,07,29,29.30
2006,02,01,07,30,27.50
2006,02,01,07,31,27.20
2006,02,01,07,32,29.40
2006,02,01,07,33,34.30
2006,02,01,07,34,23.60
2006,02,01,07,35,24.70
2006,02,01,07,36,34.20
2006,02,01,07,37,27.30
2006,02,01,07,38,30.60
2006,02,01,07,39,29.10
2006,02,01,07,40,30.10
2006,02,01,07,41,22.10
2006,02,01,07,42,20.10
2006,02,01,07,43,33.90
2006,02,01,07,44,28.50
2006,02,01,07,45,21.80
2006,02,01,07,46,27.80
2006,02,01,07,47,22.60
2006,02,01,07,48,22.00
2006,02,01,07,49,31.80
2006,02,01,07,50,27.60
2006,02,01,07,51,30.00
2006,02,01,07,52,24.70
2006,02,01,07,53,41.00
2006,02,01,07,54,44.50
2006,02,01,07,55,37.90
2006,02,01,07,56,32.90
2006,02,01,07,57,25.50
2006,02,01,07,58,29.80
2006,02,01,07,59,27.30
2006,02,01,08,00,20.70
2006,02,01,08,01,21.20
2006,02,01,08,02,20.80
2006,02,01,08,03,17.50
2006,02,01,08,04,29.10
2006,02,01,08,05,29.20
2006,02,01,08,06,24.20
2006,02,01,08,07,21.60
2006,02,01,08,08,19.60
2006,02,01,08,09,20.80
2006,02,01,08,10,16.90
2006,02,01,08,11,22.70
2006,02,01,08,12,17.20
2006,02,01,08,13,19.10
2006,02,01,08,14,25.80
2006,02,01,08,15,19.80
2006,02,01,08,16,25.20
2006,02,01,08,17,25.70
2006,02,01,08,18,19.20
2006,02,01,08,19,22.50
2006,02,01,08,20,22.50
2006,02,01,08,21,21.30
2006,02,01,08,22,23.70
2006,02,01,08,23,23.90
2006,02,01,08,24,16.90
2006,02,01,08,25,15.80
2006,02,01,08,26,11.50
2006,02,01,08,27,23.90
2006,02,01,08,28,21.60
2006,02,01,08,29,14.60
2006,02,01,08,30,19.00
2006,02,01,08,31,15.50
2006,02,01,08,32,15.50
2006,02,01,08,33,15.40
2006,02,01,08,34,13.00
2006,02,01,08,35,12.30
2006,02,01,08,36,14.80
2006,02,01,08,37,12.00
2006,02,01,08,38,17.50
2006,02,01,08,39,11.70
2006,02,01,08,40,10.40
2006,02,01,08,41,9.90
2006,02,01,08,42,15.90
2006,02,01,08,43,18.30
2006,02,01,08,44,18.30
2006,02,01,08,45,11.70
2006,02,01,08,46,9.60
2006,02,01,08,47,13.20
2006,02,01,08,48,15.50
2006,02,01,08,49,14.20
2006,02,01,08,50,13.80
2006,02,01,08,51,16.30
2006,02,01,08,52,14.40
2006,02,01,08,53,15.30
2006,02,01,08,54,16.40
2006,02,01,08,55,11.20
2006,02,01,08,56,8.40
2006,02,01,08,57,11.70
2006,02,01,08,58,10.10
2006,02,01,08,59,12.60
2006,02,01,09,00,6.90
2006,02,01,09,01,3.50
2006,02,01,09,02,12.50
2006,02,01,09,03,9.40
2006,02,01,09,04,6.30
2006,02,01,09,05,3.90
2006,02,01,09,06,4.00
2006,02,01,09,07,7.20
2006,02,01,09,08,6.40
2006,02,01,09,09,5.30
2006,02,01,09,10,4.70
2006,02,01,09,11,3.50
2006,02,01,09,12,6.40
2006,02,01,09,13,13.70
2006,02,01,09,14,9.30
2006,02,01,09,15,4.70
2006,02,01,09,16,5.80
2006,02,01,09,17,9.10
2006,02,01,09,18,10.10
2006,02,01,09,19,10.50
2006,02,01,09,20,4.90
2006,02,01,09,21,8.00
2006,02,01,09,22,5.20
2006,02,01,09,23,6.40
2006,02,01,09,24,6.40
2006,02,01,09,25,6.70
2006,02,01,09,26,6.50
2006,02,01,09,27,11.40
2006,02,01,09,28,16.30
2006,02,01,09,29,15.30
2006,02,01,09,30,15.50
2006,02,01,09,31,13.60
2006,02,01,09,32,10.60
2006,02,01,09,33,8.50
2006,02,01,09,34,10.20
2006,02,01,09,35,12.70
2006,02,01,09,36,5.60
2006,02,01,09,37,5.90
2006,02,01,09,38,8.90
2006,02,01,09,39,10.90
2006,02,01,09,40,7.50
2006,02,01,09,41,6.50
2006,02,01,09,42,17.50
2006,02,01,09,43,14.90
2006,02,01,09,44,10.10
2006,02,01,09,45,11.80
2006,02,01,09,46,8.40
2006,02,01,09,47,16.70
2006,02,01,09,48,15.20
2006,02,01,09,49,6.90
2006,02,01,09,50,12.90
2006,02,01,09,51,12.30
2006,02,01,09,52,14.70
2006,02,01,09,53,14.70
2006,02,01,09,54,17.10
2006,02,01,09,55,15.90
2006,02,01,09,56,13.00
2006,02,01,09,57,16.00
2006,02,01,09,58,20.00
2006,02,01,09,59,22.00
2006,02,01,10,00,22.80
2006,02,01,10,01,16.90
2006,02,01,10,02,23.00
2006,02,01,10,03,25.00
2006,02,01,10,04,24.60
2006,02,01,10,05,16.70
2006,02,01,10,06,13.70
2006,02,01,10,07,14.20
2006,02,01,10,08,18.80
2006,02,01,10,09,24.10
2006,02,01,10,10,23.20
2006,02,01,10,11,13.70
2006,02,01,10,12,17.00
2006,02,01,10,13,18.70
2006,02,01,10,14,20.30
2006,02,01,10,15,13.90
2006,02,01,10,16,17.60
2006,02,01,10,17,21.10
2006,02,01,10,18,21.60
2006,02,01,10,19,18.80
2006,02,01,10,20,17.60
2006,02,01,10,21,21.30
2006,02,01,10,22,17.80
2006,02,01,10,23,13.70
2006,02,01,10,24,10.60
2006,02,01,10,25,17.40
2006,02,01,10,26,16.40
2006,02,01,10,27,14.20
2006,02,01,10,28,15.60
2006,02,01,10,29,17.80
2006,02,01,10,30,15.60
2006,02,01,10,31,16.20
2006,02,01,10,32,21.20
2006,02,01,10,33,29.30
2006,02,01,10,34,19.10
2006,02,01,10,35,12.60
2006,02,01,10,36,17.60
2006,02,01,10,37,19.90
2006,02,01,10,38,16.70
2006,02,01,10,39,14.20
2006,02,01,10,40,17.20
2006,02,01,10,41,24.70
2006,02,01,10,42,22.70
2006,02,01,10,43,17.40
2006,02,01,10,44,17.10
2006,02,01,10,45,18.10
2006,02,01,10,46,20.20
2006,02,01,10,47,18.30
2006,02,01,10,48,16.30
2006,02,01,10,49,18.40
2006,02,01,10,50,16.80
2006,02,01,10,51,15.40
2006,02,01,10,52,20.60
2006,02,01,10,53,20.80
2006,02,01,10,54,18.60
2006,02,01,10,55,18.20
2006,02,01,10,56,19.30
2006,02,01,10,57,20.30
2006,02,01,10,58,22.70
2006,02,01,10,59,17.80
2006,02,01,11,00,15.30
2006,02,01,11,01,13.60
2006,02,01,11,02,17.50
2006,02,01,11,03,13.70
2006,02,01,11,04,15.40
2006,02,01,11,05,15.80
2006,02,01,11,06,11.60
2006,02,01,11,07,17.20
2006,02,01,11,08,16.70
2006,02,01,11,09,13.80
2006,02,01,11,10,12.90
2006,02,01,11,11,13.90
2006,02,01,11,12,11.60
2006,02,01,11,13,13.30
2006,02,01,11,14,8.30
2006,02,01,11,15,14.00
2006,02,01,11,16,14.60
2006,02,01,11,17,13.20
2006,02,01,11,18,18.10
2006,02,01,11,19,12.10
2006,02,01,11,20,15.80
2006,02,01,11,21,16.80
2006,02,01,11,22,17.50
2006,02,01,11,23,16.10
2006,02,01,11,24,14.10
2006,02,01,11,25,20.20
2006,02,01,11,26,22.00
2006,02,01,11,27,20.30
2006,02,01,11,28,16.50
2006,02,01,11,29,12.50
2006,02,01,11,30,12.60
2006,02,01,11,31,14.10
2006,02,01,11,32,14.20
2006,02,01,11,33,11.70
2006,02,01,11,34,11.40
2006,02,01,11,35,16.40
2006,02,01,11,36,15.80
2006,02,01,11,37,7.60
2006,02,01,11,38,14.40
2006,02,01,11,39,14.80
2006,02,01,11,40,16.00
2006,02,01,11,41,15.10
2006,02,01,11,42,10.50
2006,02,01,11,43,11.40
2006,02,01,11,44,15.80
2006,02,01,11,45,14.00
2006,02,01,11,46,12.70
2006,02,01,11,47,12.60
2006,02,01,11,48,12.50
2006,02,01,11,49,13.50
2006,02,01,11,50,13.30
2006,02,01,11,51,9.80
2006,02,01,11,52,16.30
2006,02,01,11,53,14.50
2006,02,01,11,54,15.90
2006,02,01,11,55,16.60
2006,02,01,11,56,11.90
2006,02,01,11,57,12.30
2006,02,01,11,58,17.10
2006,02,01,11,59,14.70
2006,02,01,12,00,13.90
2006,02,01,12,01,17.10
2006,02,01,12,02,10.30
2006,02,01,12,03,10.70
2006,02,01,12,04,13.00
2006,02,01,12,05,9.40
2006,02,01,12,06,13.10
2006,02,01,12,07,10.20
2006,02,01,12,08,13.10
2006,02,01,12,09,8.70
2006,02,01,12,10,11.30
2006,02,01,12,11,11.30
2006,02,01,12,12,10.70
2006,02,01,12,13,12.80
2006,02,01,12,14,13.80
2006,02,01,12,15,13.00
2006,02,01,12,16,10.40
2006,02,01,12,17,8.90
2006,02,01,12,18,9.40
2006,02,01,12,19,9.70
2006,02,01,12,20,9.00
2006,02,01,12,21,12.20
2006,02,01,12,22,10.40
2006,02,01,12,23,10.10
2006,02,01,12,24,7.50
2006,02,01,12,25,7.20
2006,02,01,12,26,5.80
2006,02,01,12,27,9.30
2006,02,01,12,28,10.30
2006,02,01,12,29,9.60
2006,02,01,12,30,8.00
2006,02,01,12,31,8.20
2006,02,01,12,32,5.60
2006,02,01,12,33,6.50
2006,02,01,12,34,11.80
2006,02,01,12,35,6.30
2006,02,01,12,36,10.00
2006,02,01,12,37,4.60
2006,02,01,12,38,5.30
2006,02,01,12,39,6.00
2006,02,01,12,40,10.20
2006,02,01,12,41,9.50
2006,02,01,12,42,7.60
2006,02,01,12,43,7.90
2006,02,01,12,44,7.10
2006,02,01,12,45,6.90
2006,02,01,12,46,7.70
2006,02,01,12,47,8.10
2006,02,01,12,48,5.20
2006,02,01,12,49,7.80
2006,02,01,12,50,5.30
2006,02,01,12,51,4.50
2006,02,01,12,52,5.80
2006,02,01,12,53,4.50
2006,02,01,12,54,4.40
2006,02,01,12,55,4.40
2006,02,01,12,56,5.80
2006,02,01,12,57,2.60
2006,02,01,12,58,4.20
2006,02,01,12,59,6.20
2006,02,01,13,00,5.30
2006,02,01,13,01,7.10
2006,02,01,13,02,6.80
2006,02,01,13,03,3.50
2006,02,01,13,04,3.50
2006,02,01,13,05,8.60
2006,02,01,13,06,7.40
2006,02,01,13,07,4.70
2006,02,01,13,08,8.50
2006,02,01,13,09,4.40
2006,02,01,13,10,5.90
2006,02,01,13,11,5.80
2006,02,01,13,12,6.00
2006,02,01,13,13,3.70
2006,02,01,13,14,6.40
2006,02,01,13,15,4.90
2006,02,01,13,16,4.60
2006,02,01,13,17,5.90
2006,02,01,13,18,5.40
2006,02,01,13,19,6.90
2006,02,01,13,20,5.50
2006,02,01,13,21,5.80
2006,02,01,13,22,2.30
2006,02,01,13,23,3.70
2006,02,01,13,24,4.70
2006,02,01,13,25,2.70
2006,02,01,13,26,3.30
2006,02,01,13,27,3.90
2006,02,01,13,28,2.90
2006,02,01,13,29,2.90
2006,02,01,13,30,2.30
2006,02,01,13,31,1.30
2006,02,01,13,32,0.50
2006,02,01,13,33,2.50
2006,02,01,13,34,2.30
2006,02,01,13,35,1.90
2006,02,01,13,36,3.20
2006,02,01,13,37,4.60
2006,02,01,13,38,3.00
2006,02,01,13,39,2.30
2006,02,01,13,40,3.60
2006,02,01,13,41,3.70
2006,02,01,13,42,0.30
2006,02,01,13,43,0.10
2006,02,01,13,44,1.30
2006,02,01,13,45,1.50
2006,02,01,13,46,0.00
2006,02,01,13,47,0.00
2006,02,01,13,48,0.00
2006,02,01,13,49,3.90
2006,02,01,13,50,2.30
2006,02,01,13,51,3.80
2006,02,01,13,52,3.50
2006,02,01,13,53,2.30
2006,02,01,13,54,3.00
2006,02,01,13,55,2.70
2006,02,01,13,56,3.60
2006,02,01,13,57,3.30
2006,02,01,13,58,5.10
2006,02,01,13,59,3.90
2006,02,01,14,00,4.60
2006,02,01,14,01,5.00
2006,02,01,14,02,1.90
2006,02,01,14,03,3.10
2006,02,01,14,04,3.10
2006,02,01,14,05,0.80
2006,02,01,14,06,0.80
2006,02,01,14,07,0.20
2006,02,01,14,08,0.50
2006,02,01,14,09,1.90
2006,02,01,14,10,3.10
2006,02,01,14,11,2.40
2006,02,01,14,12,4.80
2006,02,01,14,13,2.30
2006,02,01,14,14,5.60
2006,02,01,14,15,5.00
2006,02,01,14,16,7.50
2006,02,01,14,17,6.80
2006,02,01,14,18,6.70
2006,02,01,14,19,5.70
2006,02,01,14,20,5.10
2006,02,01,14,21,6.60
2006,02,01,14,22,6.40
2006,02,01,14,23,5.30
2006,02,01,14,24,7.60
2006,02,01,14,25,6.70
2006,02,01,14,26,4.50
2006,02,01,14,27,5.90
2006,02,01,14,28,8.40
2006,02,01,14,29,6.60
2006,02,01,14,30,3.90
2006,02,01,14,31,1.50
2006,02,01,14,32,1.80
2006,02,01,14,33,2.00
2006,02,01,14,34,3.40
2006,02,01,14,35,5.20
2006,02,01,14,36,6.20
2006,02,01,14,37,5.10
2006,02,01,14,38,6.00
2006,02,01,14,39,3.30
2006,02,01,14,40,5.70
2006,02,01,14,41,6.20
2006,02,01,14,42,4.90
2006,02,01,14,43,6.90
2006,02,01,14,44,6.80
2006,02,01,14,45,2.70
2006,02,01,14,46,1.90
2006,02,01,14,47,4.20
2006,02,01,14,48,4.80
2006,02,01,14,49,1.70
2006,02,01,14,50,0.00
2006,02,01,14,51,0.30
2006,02,01,14,52,0.10
2006,02,01,14,53,1.20
2006,02,01,14,54,4.50
2006,02,01,14,55,2.10
2006,02,01,14,56,4.50
2006,02,01,14,57,5.90
2006,02,01,14,58,4.00
2006,02,01,14,59,1.00
2006,02,01,15,00,1.50
2006,02,01,15,01,5.10
2006,02,01,15,02,2.50
2006,02,01,15,03,6.40
2006,02,01,15,04,6.50
2006,02,01,15,05,7.80
2006,02,01,15,06,2.70
2006,02,01,15,07,3.30
2006,02,01,15,08,3.30
2006,02,01,15,09,3.90
2006,02,01,15,10,2.50
2006,02,01,15,11,2.00
2006,02,01,15,12,3.30
2006,02,01,15,13,3.30
2006,02,01,15,14,3.80
2006,02,01,15,15,1.70
2006,02,01,15,16,0.30
2006,02,01,15,17,0.00
2006,02,01,15,18,0.00
2006,02,01,15,19,0.10
2006,02,01,15,20,1.50
2006,02,01,15,21,3.50
2006,02,01,15,22,2.80
2006,02,01,15,23,2.20
2006,02,01,15,24,2.10
2006,02,01,15,25,2.20
2006,02,01,15,26,1.20
2006,02,01,15,27,0.00
2006,02,01,15,28,3.10
2006,02,01,15,29,2.50
2006,02,01,15,30,2.40
2006,02,01,15,31,1.10
2006,02,01,15,32,2.80
2006,02,01,15,33,0.30
2006,02,01,15,34,0.00
2006,02,01,15,35,0.00
2006,02,01,15,36,1.40
2006,02,01,15,37,1.40
2006,02,01,15,38,1.30
2006,02,01,15,39,0.60
2006,02,01,15,40,0.00
2006,02,01,15,41,0.00
2006,02,01,15,42,0.00
2006,02,01,15,43,0.00
2006,02,01,15,44,0.00
2006,02,01,15,45,0.80
2006,02,01,15,46,1.50
2006,02,01,15,47,0.00
2006,02,01,15,48,0.00
2006,02,01,15,49,0.00
2006,02,01,15,50,0.00
2006,02,01,15,51,0.00
2006,02,01,15,52,1.00
2006,02,01,15,53,0.00
2006,02,01,15,54,0.20
2006,02,01,15,55,0.50
2006,02,01,15,56,0.20
2006,02,01,15,57,0.00
2006,02,01,15,58,0.00
2006,02,01,15,59,0.00
2006,02,01,16,00,0.00
2006,02,01,16,01,0.00
2006,02,01,16,02,0.00
2006,02,01,16,03,1.00
2006,02,01,16,04,2.70
2006,02,01,16,05,4.10
2006,02,01,16,06,5.00
2006,02,01,16,07,4.90
2006,02,01,16,08,3.30
2006,02,01,16,09,3.40
2006,02,01,16,10,2.20
2006,02,01,16,11,1.50
2006,02,01,16,12,1.10
2006,02,01,16,13,0.00
2006,02,01,16,14,1.30
2006,02,01,16,15,1.30
2006,02,01,16,16,0.00
2006,02,01,16,17,0.00
2006,02,01,16,18,0.30
2006,02,01,16,19,0.00
2006,02,01,16,20,1.00
2006,02,01,16,21,0.70
2006,02,01,16,22,1.70
2006,02,01,16,23,1.20
2006,02,01,16,24,0.10
2006,02,01,16,25,0.80
2006,02,01,16,26,2.80
2006,02,01,16,27,4.30
2006,02,01,16,28,2.90
2006,02,01,16,29,2.10
2006,02,01,16,30,5.10
2006,02,01,16,31,5.50
2006,02,01,16,32,1.50
2006,02,01,16,33,2.70
2006,02,01,16,34,6.40
2006,02,01,16,35,7.70
2006,02,01,16,36,6.80
2006,02,01,16,37,4.70
2006,02,01,16,38,6.60
2006,02,01,16,39,6.00
2006,02,01,16,40,5.40
2006,02,01,16,41,6.60
2006,02,01,16,42,3.90
2006,02,01,16,43,5.30
2006,02,01,16,44,8.00
2006,02,01,16,45,5.50
2006,02,01,16,46,5.50
2006,02,01,16,47,6.70
2006,02,01,16,48,9.90
2006,02,01,16,49,5.00
2006,02,01,16,50,7.60
2006,02,01,16,51,7.00
2006,02,01,16,52,4.20
2006,02,01,16,53,3.50
2006,02,01,16,54,4.60
2006,02,01,16,55,3.00
2006,02,01,16,56,6.50
2006,02,01,16,57,3.80
2006,02,01,16,58,5.70
2006,02,01,16,59,7.50
2006,02,01,17,00,6.00
2006,02,01,17,01,3.90
2006,02,01,17,02,4.80
2006,02,01,17,03,5.60
2006,02,01,17,04,4.20
2006,02,01,17,05,7.70
2006,02,01,17,06,5.60
2006,02,01,17,07,9.20
2006,02,01,17,08,6.00
2006,02,01,17,09,2.60
2006,02,01,17,10,6.30
2006,02,01,17,11,5.10
2006,02,01,17,12,6.90
2006,02,01,17,13,4.90
2006,02,01,17,14,8.80
2006,02,01,17,15,8.40
2006,02,01,17,16,4.30
2006,02,01,17,17,5.80
2006,02,01,17,18,4.50
2006,02,01,17,19,3.80
2006,02,01,17,20,5.20
2006,02,01,17,21,4.80
2006,02,01,17,22,3.00
2006,02,01,17,23,1.90
2006,02,01,17,24,3.20
2006,02,01,17,25,4.00
2006,02,01,17,26,1.10
2006,02,01,17,27,4.00
2006,02,01,17,28,4.50
2006,02,01,17,29,5.20
2006,02,01,17,30,4.50
2006,02,01,17,31,4.20
2006,02,01,17,32,3.40
2006,02,01,17,33,4.60
2006,02,01,17,34,3.20